This is the latest recevied weather packets stored in our database for station/object KC8BSD. If no packets are shown the sender has not sent any weather packets the latest 10 day(s).
| Time | Temp. | Humidity | Pressure | Rain* | Wind** | Luminosity | Snow |
|---|---|---|---|---|---|---|---|
| 1777774097 | 2.22° C | 70% | 1017.4 hPa | 0 mm | - | 0 W/m² | - |
| 1777773795 | 2.22° C | 70% | 1017.3 hPa | 0 mm | - | 0 W/m² | - |
| 1777773491 | 2.78° C | 69% | 1017.4 hPa | 0 mm | - | 0 W/m² | - |
| 1777773188 | 2.78° C | 69% | 1017.5 hPa | 0 mm | - | 0 W/m² | - |
| 1777772884 | 3.33° C | 68% | 1017.3 hPa | 0 mm | - | 0 W/m² | - |
| 1777772581 | 3.33° C | 68% | 1017.4 hPa | 0 mm | - | 0 W/m² | - |
| 1777772278 | 3.33° C | 67% | 1017.4 hPa | 0 mm | - | 0 W/m² | - |
| 1777771976 | 3.33° C | 65% | 1017.5 hPa | 0 mm | - | 0 W/m² | - |
| 1777771673 | 3.89° C | 65% | 1017.2 hPa | 0 mm | - | 0 W/m² | - |
| 1777771370 | 3.89° C | 65% | 1017.4 hPa | 0 mm | - | 0 W/m² | - |
| 1777771067 | 3.89° C | 64% | 1017.4 hPa | 0 mm | - | 0 W/m² | - |
| 1777770764 | 4.44° C | 63% | 1017.4 hPa | 0 mm | - | 0 W/m² | - |
| 1777770460 | 4.44° C | 63% | 1017.1 hPa | 0 mm | - | 0 W/m² | - |
| 1777770157 | 5° C | 62% | 1017.3 hPa | 0 mm | - | 0 W/m² | - |
| 1777769855 | 5° C | 61% | 1017.1 hPa | 0 mm | - | 0 W/m² | - |
| 1777769552 | 5.56° C | 60% | 1017 hPa | 0 mm | - | 0 W/m² | - |
| 1777769247 | 6.11° C | 59% | 1017.3 hPa | 0 mm | - | 0 W/m² | - |
| 1777768946 | 6.11° C | 58% | 1017 hPa | 0 mm | - | 0 W/m² | - |
| 1777768643 | 6.67° C | 56% | 1017 hPa | 0 mm | - | 1 W/m² | - |
| 1777768340 | 7.22° C | 54% | 1017.1 hPa | 0 mm | - | 3 W/m² | - |
| 1777768036 | 7.22° C | 54% | 1017 hPa | 0 mm | - | 6 W/m² | - |
| 1777767734 | 7.78° C | 53% | 1017 hPa | 0 mm | - | 8 W/m² | - |
| 1777767429 | 7.78° C | 51% | 1016.8 hPa | 0 mm | - | 11 W/m² | - |
| 1777767126 | 8.33° C | 51% | 1017.2 hPa | 0 mm | - | 16 W/m² | - |
| 1777766824 | 8.33° C | 50% | 1017 hPa | 0 mm | - | 23 W/m² | - |
* Rain latest hour (hover to see other rain measurements)
** Current wind speed in m/s (hover to see current wind gust speed)